[[{"header":{"parameterUnit":"m.s-1","parameterCategory":2,"la1":30.2991,"la2":30.254,"lo1":-89.0895,"lo2":-89.0444,"dy":0.0017,"dx":0.0017,"nx":28,"ny":28,"refTime":"2023-08-19T09:00:00:Z","depth":"0","parameterNumber":2,"parameterNumberName":"U-component_of_CURRENTS"},"data":[0,0,0,0,0,0,0,0,0,0,0,0,0,0,0,0,0,0,0,0,0,0,0,0,0,0,0,0,0,0,0,0,0,0,0,0,0,0,0,0,0,0,0,0,0,0,0,0,0,0,0,0,0,0,0,0,0,0,0.2924,0.2924,0,0.2997,0.2998,0.2999,0.2999,0.2997,0.2996,0.2995,0.3091,0.3095,0.3099,0,0,0,0,0,0,0,0,0,0,0,0,0,0.2908,0.2908,0.2924,0.2924,0.2925,0.2997,0.2998,0.2999,0.2999,0.2997,0.2996,0.2994,0.309,0.3094,0.3099,0,0,0,0,0,0,0,0,0,0,0,0,0,0.2944,0.2908,0.2924,0.2931,0.2932,0.2996,0.2998,0.3,0.2999,0.2997,0.2995,0.2994,0.3088,0.3094,0.3099,0.3172,0,0,0.3117,0.3119,0,0,0,0,0,0,0,0,0.2942,0.2945,0.2929,0.293,0.2932,0.2984,0.3028,0.3057,0.3,0.2977,0.2995,0.2993,0.3057,0.3065,0.3087,0.3177,0.3181,0.3117,0.3121,0.3123,0.3125,0,0,0,0,0,0,0,0.294,0.2943,0.2956,0.293,0.2932,0.2973,0.2975,0.3034,0.303,0.2979,0.2978,0.2982,0.3058,0.3082,0.3089,0.3182,0.3117,0.3122,0.3125,0.3128,0.3379,0.3383,0,0,0,0,0,0,0.2919,0.294,0.2954,0.2958,0.2929,0.2974,0.2977,0.2972,0.3029,0.3034,0.2983,0.2981,0.3073,0.3083,0.3093,0.3189,0.3123,0.3128,0.3131,0.3376,0.338,0.3384,0,0,0,0,0,0,0.2919,0.292,0.2951,0.2949,0.2955,0.2975,0.297,0.2974,0.2992,0.3031,0.3037,0.2995,0.3072,0.3085,0.3155,0.3192,0.3131,0.3136,0.3372,0.3377,0.3382,0.3377,0,0,0,0,0,0,0.2918,0.2919,0.2925,0.2947,0.2954,0.2992,0.2972,0.2977,0.2995,0.2993,0.3044,0.3051,0.3072,0.3146,0.316,0.3199,0.314,0.3368,0.3374,0.338,0.3373,0.3382,0.3389,0,0,0,0,0,0.2917,0.2955,0.2925,0.2927,0.2956,0.2993,0.3002,0.3012,0.2997,0.3019,0.3054,0.3049,0.3196,0.3154,0.3169,0.321,0.3365,0.3373,0.338,0.337,0.338,0.3388,0,0,0,0,0,0,0.2975,0.2958,0.2926,0.2959,0.2963,0.2991,0.3023,0.3016,0.3062,0.3061,0.3086,0.3099,0.319,0.3207,0.3159,0.3308,0.3283,0.3294,0.3271,0.3281,0.3288,0.327,0.3145,0,0,0,0,0,0.2979,0.299,0.2974,0.3003,0.2999,0.3003,0.3023,0.3021,0.3055,0.3071,0.3103,0.3158,0.3239,0.3258,0.3335,0.3398,0.3439,0.3442,0.3449,0.3455,0.3457,0.3548,0.3562,0.3408,0.3408,0.3408,0,0,0.301,0.3005,0.3011,0.3014,0.3017,0.3024,0.3012,0.3042,0.3062,0.3079,0.3135,0.3198,0.3272,0.3357,0.3396,0.3363,0.3528,0.3464,0.3468,0.3467,0.3557,0.3571,0.3584,0.3413,0.3412,0.3411,0,0,0.3067,0.3063,0.3069,0.3066,0.306,0.3068,0.3068,0.3082,0.3101,0.3159,0.3196,0.3267,0.3364,0.3419,0.3462,0.356,0.3586,0.3594,0.3587,0.3676,0.3688,0.3699,0.3787,0.3806,0.357,0.357,0.357,0,0.3082,0.3083,0.3087,0.3082,0.3076,0.3078,0.3071,0.3114,0.3154,0.3183,0.3178,0.3349,0.3397,0.3508,0.354,0.3573,0.3629,0.3534,0.3681,0.3693,0.3704,0.3792,0.3812,0.357,0.357,0.357,0.357,0,0.3129,0.3113,0.3127,0.3099,0.3115,0.312,0.3138,0.3176,0.3194,0.3227,0.3341,0.3416,0.3503,0.3544,0.3567,0.3683,0.3702,0.3696,0.3641,0.3718,0.3807,0.3829,0.3571,0.3571,0.3571,0.3571,0,0,0.3124,0.3143,0.3127,0.3103,0.3106,0.312,0.3174,0.3212,0.3253,0.332,0.3384,0.3517,0.3547,0.3601,0.3648,0.3709,0.3839,0.3725,0.3729,0.3783,0.4047,0.4002,0.4021,0.3854,0.3857,0.386,0.4081,0,0.3111,0.3111,0.3126,0.3113,0.3095,0.3119,0.3169,0.3225,0.3286,0.3368,0.3461,0.3559,0.3575,0.3618,0.369,0.3815,0.3894,0.378,0.3989,0.3996,0.3922,0.4044,0.3939,0.4122,0.4102,0.4105,0.4108,0,0.3086,0.3089,0.3081,0.3085,0.3079,0.3093,0.315,0.3197,0.3327,0.3381,0.3484,0.3571,0.3702,0.3694,0.3921,0.3849,0.3953,0.4033,0.4043,0.4012,0.3991,0.4043,0.4162,0.3987,0.4141,0.4139,0.4136,0,0.3041,0.303,0.3027,0.3022,0.3057,0.3068,0.3093,0.3195,0.3242,0.3391,0.3452,0.3618,0.3711,0.3861,0.4028,0.3989,0.4274,0.4239,0.4304,0.4303,0.426,0.4248,0.4205,0.441,0.441,0.4409,0.4409,0,0.2991,0.2968,0.3002,0.2993,0.2989,0.3028,0.3058,0.3119,0.3226,0.3302,0.3447,0.3547,0.3758,0.394,0.4071,0.4264,0.4318,0.4339,0.4367,0.4259,0.4244,0.4125,0.4015,0.4417,0.4416,0.4414,0.4413,0,0.2927,0.2951,0.2933,0.2961,0.2962,0.2958,0.2996,0.3039,0.3146,0.3253,0.3303,0.3528,0.3764,0.3978,0.4249,0.4316,0.439,0.4556,0.4414,0.4419,0.4256,0.4151,0.4097,0.4034,0.4656,0.4656,0.4656,0,0.2906,0.2891,0.2896,0.2879,0.2879,0.2883,0.2895,0.2981,0.3035,0.3239,0.3296,0.3554,0.372,0.4097,0.4325,0.4577,0.4421,0.4571,0.4462,0.4254,0.4159,0.4008,0.3948,0.443,0.4428,0.4427,0.4426,0,0.2843,0.2843,0.2836,0.281,0.2797,0.2791,0.2818,0.2842,0.2977,0.3076,0.3236,0.3377,0.378,0.3989,0.4319,0.4467,0.4326,0.4547,0.4383,0.4022,0.3809,0.3757,0.4273,0.4414,0.4416,0.4416,0.4417,0.4418,0.2785,0.2767,0.2759,0.272,0.2703,0.2686,0.2665,0.2734,0.2792,0.2926,0.3117,0.3291,0.3635,0.4091,0.4204,0.4286,0.4283,0.4201,0.4115,0.4001,0.3839,0.4317,0.4438,0.4439,0.444,0.4441,0.4442,0,0.2707,0.2701,0.2669,0.2618,0.2561,0.2589,0.2606,0.2595,0.2634,0.2795,0.2926,0.3204,0.3461,0.3724,0.395,0.3844,0.3788,0.3754,0.3504,0.3491,0.3981,0.3865,0.3801,0.3801,0.3801,0.3801,0.3802,0.3802,0.267,0.2627,0.2615,0.2492,0.2447,0.2376,0.2366,0.238,0.2463,0.2556,0.2672,0.2831,0.3107,0.334,0.3361,0.3372,0.3134,0.3067,0.3047,0.3334,0.3367,0.3399,0.3263,0.3075,0.3074,0.2515,0.251,0.2506]},{"header":{"parameterUnit":"m.s-1","parameterCategory":2,"la1":30.2991,"la2":30.254,"lo1":-89.0895,"lo2":-89.0444,"dy":0.0017,"dx":0.0017,"nx":28,"ny":28,"refTime":"2023-08-19T09:00:00:Z","depth":"0","parameterNumber":3,"parameterNumberName":"V-component_of_CURRENTS"},"data":[0,0,0,0,0,0,0,0,0,0,0,0,0,0,0,0,0,0,0,0,0,0,0,0,0,0,0,0,0,0,0,0,0,0,0,0,0,0,0,0,0,0,0,0,0,0,0,0,0,0,0,0,0,0,0,0,0,0,0.1646,0.1646,0,0.1617,0.1617,0.1616,0.152,0.1518,0.1517,0.1515,0.1365,0.1362,0.136,0,0,0,0,0,0,0,0,0,0,0,0,0,0.1628,0.1628,0.1646,0.1646,0.1647,0.1618,0.1617,0.1616,0.152,0.1518,0.1516,0.1514,0.1366,0.1363,0.136,0,0,0,0,0,0,0,0,0,0,0,0,0,0.1615,0.1628,0.1646,0.16,0.1596,0.1618,0.1617,0.1615,0.152,0.1518,0.1516,0.1514,0.1367,0.1363,0.1359,0.1383,0,0,0.1348,0.1346,0,0,0,0,0,0,0,0,0.1616,0.1615,0.1607,0.1603,0.1599,0.1575,0.1555,0.1534,0.1521,0.1542,0.1515,0.1512,0.143,0.1421,0.1413,0.1376,0.1369,0.1347,0.1345,0.1343,0.1342,0,0,0,0,0,0,0,0.1617,0.1616,0.1628,0.1607,0.1603,0.1585,0.1579,0.1551,0.1492,0.154,0.1535,0.1543,0.1426,0.1417,0.1409,0.1367,0.1347,0.1344,0.1342,0.134,0.129,0.129,0,0,0,0,0,0,0.1635,0.1617,0.1629,0.1628,0.1609,0.1587,0.1581,0.158,0.1495,0.1483,0.1545,0.1539,0.1425,0.1413,0.1403,0.1389,0.1343,0.134,0.1338,0.1289,0.129,0.1291,0,0,0,0,0,0,0.1635,0.1637,0.1631,0.1627,0.1626,0.1591,0.159,0.1581,0.1566,0.1501,0.1484,0.1539,0.1423,0.1408,0.1371,0.1383,0.1338,0.1335,0.1287,0.1289,0.129,0.1384,0,0,0,0,0,0,0.1634,0.1636,0.1633,0.1628,0.1627,0.1635,0.1593,0.1582,0.1578,0.1569,0.1491,0.1475,0.142,0.1377,0.1367,0.1377,0.1332,0.1286,0.1288,0.129,0.1379,0.1388,0.1396,0,0,0,0,0,0.1634,0.1651,0.1633,0.1635,0.1626,0.1636,0.1632,0.1596,0.158,0.1573,0.1525,0.1477,0.1381,0.1375,0.1363,0.1372,0.1285,0.1288,0.129,0.1376,0.1386,0.1395,0,0,0,0,0,0,0.1648,0.1644,0.1623,0.1638,0.1631,0.1621,0.1625,0.1608,0.157,0.1559,0.1491,0.1472,0.1448,0.1402,0.1398,0.1364,0.1325,0.1325,0.1395,0.1404,0.1412,0.143,0.1328,0,0,0,0,0,0.1653,0.1663,0.165,0.1668,0.1664,0.1647,0.1647,0.1626,0.1602,0.1582,0.1529,0.148,0.1453,0.1421,0.1385,0.1367,0.1327,0.1365,0.1373,0.138,0.1387,0.133,0.1333,0.1298,0.1298,0.1298,0,0,0.1665,0.1671,0.1673,0.1672,0.1666,0.1675,0.1639,0.1648,0.1653,0.1574,0.1553,0.1511,0.1458,0.1436,0.142,0.1392,0.1375,0.1383,0.1389,0.1392,0.1332,0.1336,0.1339,0.1299,0.1299,0.1299,0,0,0.1714,0.17,0.1717,0.1715,0.1715,0.1706,0.1712,0.1693,0.1672,0.1658,0.161,0.1578,0.1521,0.1485,0.1464,0.1499,0.1429,0.1483,0.1524,0.1469,0.1472,0.1473,0.145,0.1449,0.1475,0.1475,0.1475,0,0.1717,0.1741,0.1726,0.1745,0.1753,0.1725,0.1744,0.1733,0.1702,0.1695,0.1657,0.1596,0.155,0.1536,0.1543,0.1518,0.1479,0.1492,0.148,0.148,0.148,0.1455,0.1453,0.148,0.148,0.1479,0.1479,0,0.1776,0.1785,0.1805,0.1812,0.182,0.1835,0.1822,0.1815,0.1792,0.1773,0.1748,0.1682,0.1642,0.1626,0.1593,0.1577,0.155,0.1506,0.1456,0.1489,0.1462,0.1457,0.1487,0.1485,0.1484,0.1483,0,0,0.177,0.1828,0.1826,0.184,0.185,0.1864,0.1885,0.1886,0.1896,0.1848,0.1851,0.1801,0.1759,0.1733,0.1681,0.1628,0.1605,0.1568,0.1562,0.1548,0.1498,0.1468,0.1459,0.1545,0.1544,0.1544,0.1489,0,0.1797,0.1859,0.188,0.1922,0.1936,0.1935,0.196,0.1963,0.1943,0.1936,0.1881,0.1864,0.1803,0.1783,0.1725,0.1629,0.1592,0.1625,0.1466,0.1462,0.1431,0.1452,0.1442,0.1389,0.1484,0.1483,0.1482,0,0.1802,0.1852,0.1907,0.1965,0.1972,0.2001,0.2027,0.2049,0.2046,0.2029,0.1999,0.1957,0.1902,0.1839,0.1693,0.1709,0.1625,0.1546,0.1541,0.1473,0.1421,0.1366,0.1376,0.1197,0.1474,0.1475,0.1476,0,0.1764,0.1848,0.19,0.1917,0.1987,0.2015,0.2053,0.2069,0.2094,0.2092,0.2108,0.202,0.199,0.1853,0.1712,0.1691,0.1547,0.1495,0.14,0.1398,0.134,0.1333,0.1158,0.1412,0.1412,0.1412,0.1412,0,0.1742,0.1771,0.1894,0.1905,0.1976,0.2027,0.2083,0.2101,0.2144,0.2187,0.2158,0.2167,0.1986,0.1894,0.1742,0.1562,0.1571,0.1417,0.1376,0.1375,0.1373,0.1173,0.1063,0.141,0.1411,0.1411,0.1411,0,0.1654,0.1733,0.1788,0.19,0.1946,0.1989,0.2114,0.2151,0.2207,0.2263,0.2277,0.226,0.2145,0.1977,0.1763,0.1614,0.1332,0.1385,0.1417,0.1379,0.1096,0.0993,0.0803,0.0732,0.125,0.1248,0.1247,0,0.162,0.1644,0.1771,0.1827,0.1878,0.1979,0.2047,0.2146,0.2203,0.232,0.2345,0.2306,0.2273,0.1982,0.1711,0.1455,0.1309,0.1285,0.1238,0.1083,0.0937,0.09,0.0851,0.121,0.1209,0.1208,0.1207,0,0.1557,0.1596,0.1651,0.1762,0.185,0.1958,0.2076,0.2137,0.2266,0.2342,0.2416,0.2419,0.2221,0.195,0.1643,0.147,0.1144,0.1255,0.1069,0.0873,0.0843,0.0755,0.1267,0.1199,0.1199,0.12,0.1201,0.1201,0.1511,0.1536,0.1619,0.1711,0.1811,0.192,0.1992,0.2124,0.2232,0.2372,0.2422,0.2458,0.2182,0.1759,0.1483,0.1031,0.1058,0.0888,0.0775,0.0754,0.0674,0.1185,0.1079,0.1079,0.1079,0.1079,0.108,0,0.1478,0.1521,0.1588,0.1697,0.1767,0.1845,0.2002,0.208,0.2194,0.2348,0.2434,0.2341,0.1982,0.1605,0.0999,0.0595,0.0524,0.0439,0.0366,0.0338,0.0765,0.0751,0.0598,0.0598,0.0599,0.0599,0.0599,0.0599,0.1471,0.1508,0.154,0.1636,0.171,0.1807,0.1884,0.2006,0.2134,0.2277,0.233,0.2386,0.208,0.1054,0.0327,0.0201,-0.0083,-0.0101,-0.0212,0.0045,0.0079,0.0111,0.0072,-0.022,-0.0221,-0.0558,-0.0562,-0.0565]}],[{"header":{"parameterUnit":"m.s-1","parameterCategory":2,"la1":30.2991,"la2":30.254,"lo1":-89.0895,"lo2":-89.0444,"dy":0.0017,"dx":0.0017,"nx":28,"ny":28,"refTime":"2023-08-19T09:00:00:Z","depth":"2","parameterNumber":2,"parameterNumberName":"U-component_of_CURRENTS"},"data":[0,0,0,0,0,0,0,0,0,0,0,0,0,0,0,0,0,0,0,0,0,0,0,0,0,0,0,0,0,0,0,0,0,0,0,0,0,0,0,0,0,0,0,0,0,0,0,0,0,0,0,0,0,0,0,0,0,0,0.0938,0.0941,0,0.107,0.107,0.1069,0.1168,0.1171,0.1174,0.1177,0.1216,0.1214,0.1212,0,0,0,0,0,0,0,0,0,0,0,0,0,0.0704,0.0706,0.0938,0.0941,0.0945,0.107,0.107,0.1069,0.1168,0.1171,0.1175,0.1179,0.1216,0.1214,0.1212,0,0,0,0,0,0,0,0,0,0,0,0,0,0.0795,0.0707,0.0937,0.1027,0.1038,0.107,0.107,0.1069,0.1167,0.1172,0.1176,0.118,0.1217,0.1214,0.1212,0.1103,0,0,0.1203,0.1202,0,0,0,0,0,0,0,0,0.079,0.08,0.101,0.1021,0.1034,0.1128,0.1003,0.1084,0.1166,0.1093,0.1177,0.1183,0.119,0.119,0.1172,0.1105,0.1106,0.1203,0.1201,0.12,0.1199,0,0,0,0,0,0,0,0.0783,0.0796,0.0966,0.1014,0.1029,0.104,0.1056,0.1017,0.1093,0.1099,0.1113,0.1164,0.1193,0.1174,0.1174,0.1107,0.1203,0.1201,0.1199,0.1198,0.1173,0.1174,0,0,0,0,0,0,0.0814,0.0789,0.0962,0.0972,0.0948,0.1043,0.1059,0.1074,0.1097,0.1112,0.116,0.1169,0.1176,0.1177,0.1175,0.1197,0.12,0.1198,0.1196,0.1172,0.1173,0.1174,0,0,0,0,0,0,0.0807,0.0826,0.0957,0.0905,0.0926,0.1045,0.1058,0.1075,0.1131,0.1148,0.1158,0.1213,0.118,0.1179,0.1185,0.1195,0.1196,0.1194,0.1171,0.1172,0.1173,0.1145,0,0,0,0,0,0,0.0799,0.0821,0.0828,0.0906,0.0931,0.0988,0.1057,0.1075,0.1163,0.1176,0.1194,0.1199,0.1184,0.119,0.1183,0.1191,0.1192,0.1169,0.1171,0.1173,0.1145,0.1146,0.1146,0,0,0,0,0,0.0789,0.0761,0.0825,0.0848,0.0939,0.0989,0.0998,0.1083,0.1162,0.1154,0.1192,0.1202,0.1199,0.1186,0.1179,0.1186,0.1168,0.1171,0.1173,0.1145,0.1145,0.1146,0,0,0,0,0,0,0.0641,0.0774,0.0845,0.0856,0.094,0.1016,0.1027,0.1111,0.1131,0.1169,0.1185,0.1187,0.1194,0.1199,0.1187,0.1192,0.1196,0.1196,0.1178,0.1178,0.1178,0.1182,0.119,0,0,0,0,0,0.0623,0.0644,0.078,0.0786,0.0838,0.0948,0.0987,0.1066,0.1117,0.1136,0.1162,0.119,0.1179,0.1193,0.1172,0.116,0.1154,0.1175,0.1175,0.1175,0.1177,0.1163,0.1161,0.1181,0.1181,0.1181,0,0,0.0568,0.0647,0.0659,0.076,0.0829,0.0876,0.0975,0.1053,0.1084,0.1129,0.1153,0.1176,0.1174,0.116,0.1169,0.1179,0.1167,0.1178,0.1177,0.118,0.1165,0.1162,0.116,0.1183,0.1182,0.1182,0,0,0.0482,0.0546,0.0563,0.0637,0.0786,0.0837,0.0884,0.1005,0.1049,0.1092,0.1128,0.1154,0.117,0.1148,0.1144,0.1135,0.1158,0.1176,0.1187,0.1173,0.117,0.1168,0.1151,0.1147,0.1191,0.1191,0.1191,0,0.0434,0.0472,0.0566,0.0623,0.0684,0.0831,0.0874,0.0909,0.1016,0.1043,0.1109,0.1141,0.1145,0.1108,0.1137,0.1127,0.1151,0.1176,0.117,0.1167,0.1165,0.1149,0.1145,0.119,0.119,0.119,0.119,0,0.0388,0.0438,0.0448,0.0564,0.0614,0.0671,0.0782,0.0834,0.0939,0.0997,0.1035,0.1046,0.1092,0.1095,0.1125,0.1122,0.1152,0.1154,0.1158,0.1161,0.1144,0.1141,0.1188,0.1189,0.1189,0.1189,0,0,0.0277,0.0396,0.0417,0.0474,0.061,0.0651,0.0687,0.076,0.0815,0.0899,0.094,0.0951,0.1041,0.1045,0.108,0.1083,0.1091,0.1156,0.1156,0.1123,0.1092,0.1109,0.1107,0.1125,0.1124,0.1124,0.1082,0,0.0245,0.0303,0.0374,0.0428,0.0476,0.0598,0.0611,0.0695,0.0782,0.084,0.088,0.0931,0.0994,0.1063,0.1069,0.1104,0.1087,0.1104,0.111,0.1109,0.111,0.1104,0.1027,0.0985,0.1079,0.1078,0.1078,0,0.0229,0.0265,0.0308,0.04,0.0436,0.0484,0.058,0.0622,0.0708,0.0785,0.086,0.0931,0.0973,0.1024,0.1051,0.109,0.1101,0.1097,0.1095,0.112,0.1121,0.1002,0.0976,0.1072,0.1072,0.1073,0.1073,0,0.015,0.0239,0.0261,0.0303,0.0408,0.046,0.0525,0.0624,0.0672,0.0782,0.0853,0.0906,0.0979,0.0996,0.1069,0.1094,0.1072,0.1078,0.1059,0.1059,0.0994,0.0991,0.1035,0.1035,0.1035,0.1036,0.1036,0,0.0114,0.0149,0.0245,0.0276,0.0331,0.0426,0.0504,0.059,0.0681,0.0753,0.0852,0.0919,0.0997,0.1025,0.1049,0.107,0.1057,0.1056,0.105,0.0985,0.0981,0.1062,0.1066,0.1034,0.1034,0.1035,0.1035,0,0.0064,0.0116,0.0161,0.0261,0.0316,0.0372,0.0524,0.0569,0.0676,0.0777,0.0828,0.0945,0.1041,0.105,0.1072,0.1056,0.1042,0.1021,0.0949,0.0937,0.1039,0.1042,0.1013,0.1013,0.1013,0.1013,0.1013,0,0.0037,0.0053,0.0165,0.021,0.0283,0.0383,0.0459,0.0578,0.0639,0.0805,0.0842,0.0964,0.104,0.105,0.1046,0.1023,0.1052,0.0932,0.094,0.1039,0.1036,0.1039,0.1042,0.0831,0.0829,0.0828,0.0827,0,-0.0021,0.0034,0.0071,0.0173,0.0266,0.0353,0.0481,0.052,0.067,0.0751,0.0886,0.0948,0.101,0.1007,0.0979,0.0943,0.0946,0.0913,0.1009,0.0869,0.087,0.0867,0.0875,0.0818,0.0819,0.0819,0.082,0.082,-0.0065,-0.0044,0.0025,0.0128,0.0227,0.0333,0.0405,0.0502,0.0595,0.0725,0.0808,0.0894,0.0892,0.0862,0.0851,0.0875,0.0901,0.0865,0.0866,0.0869,0.0877,0.0881,0.083,0.0831,0.0832,0.0833,0.0833,0,-0.0146,-0.008,-0.0016,0.0091,0.0176,0.0291,0.0419,0.0449,0.0551,0.0684,0.0761,0.0709,0.0697,0.0778,0.0797,0.0772,0.0729,0.0773,0.073,0.0738,0.0745,0.0746,0.0665,0.0665,0.0665,0.0665,0,0,-0.0193,-0.0162,-0.0114,0.0011,0.0136,0.0265,0.0353,0.0397,0.0487,0.0566,0.0664,0.0623,0.0729,0.0679,0.0655,0.0719,0.0727,0.0687,0.081,0.0765,0.0774,0.0771,0.0779,0,0,0,0,0]},{"header":{"parameterUnit":"m.s-1","parameterCategory":2,"la1":30.2991,"la2":30.254,"lo1":-89.0895,"lo2":-89.0444,"dy":0.0017,"dx":0.0017,"nx":28,"ny":28,"refTime":"2023-08-19T09:00:00:Z","depth":"2","parameterNumber":3,"parameterNumberName":"V-component_of_CURRENTS"},"data":[0,0,0,0,0,0,0,0,0,0,0,0,0,0,0,0,0,0,0,0,0,0,0,0,0,0,0,0,0,0,0,0,0,0,0,0,0,0,0,0,0,0,0,0,0,0,0,0,0,0,0,0,0,0,0,0,0,0,-0.0512,-0.0511,0,-0.0543,-0.0544,-0.0546,-0.0561,-0.0559,-0.0558,-0.0556,-0.0624,-0.0627,-0.063,0,0,0,0,0,0,0,0,0,0,0,0,0,-0.0667,-0.0664,-0.0512,-0.0511,-0.051,-0.0543,-0.0544,-0.0546,-0.0561,-0.0559,-0.0557,-0.0556,-0.0623,-0.0627,-0.0631,0,0,0,0,0,0,0,0,0,0,0,0,0,-0.0652,-0.0663,-0.0512,-0.051,-0.0509,-0.0542,-0.0544,-0.0547,-0.0561,-0.0559,-0.0557,-0.0555,-0.0622,-0.0627,-0.0631,-0.0701,0,0,-0.0645,-0.0647,0,0,0,0,0,0,0,0,-0.0653,-0.0649,-0.0511,-0.051,-0.0509,-0.0533,-0.0623,-0.0595,-0.0562,-0.0557,-0.0556,-0.0554,-0.0589,-0.0596,-0.0627,-0.0704,-0.0707,-0.0646,-0.0649,-0.0651,-0.0652,0,0,0,0,0,0,0,-0.0654,-0.0648,-0.0539,-0.051,-0.0509,-0.0576,-0.0571,-0.062,-0.0596,-0.0557,-0.0555,-0.0535,-0.059,-0.0623,-0.0629,-0.0708,-0.0646,-0.065,-0.0653,-0.0654,-0.0815,-0.0817,0,0,0,0,0,0,-0.0611,-0.0648,-0.0538,-0.0538,-0.0561,-0.0573,-0.0569,-0.0539,-0.0595,-0.0597,-0.0537,-0.0536,-0.0616,-0.0623,-0.0631,-0.066,-0.0651,-0.0655,-0.0658,-0.0814,-0.0816,-0.0817,0,0,0,0,0,0,-0.0614,-0.0601,-0.0536,-0.0583,-0.0578,-0.0569,-0.0538,-0.0541,-0.0541,-0.0576,-0.0582,-0.0529,-0.0615,-0.0625,-0.0662,-0.0664,-0.0657,-0.0661,-0.0812,-0.0814,-0.0816,-0.0754,0,0,0,0,0,0,-0.0619,-0.0602,-0.0596,-0.0579,-0.0572,-0.0547,-0.0539,-0.0542,-0.0527,-0.0525,-0.0572,-0.0578,-0.0614,-0.0655,-0.0666,-0.067,-0.0665,-0.081,-0.0813,-0.0816,-0.0754,-0.0753,-0.0753,0,0,0,0,0,-0.0624,-0.0609,-0.0595,-0.0583,-0.0554,-0.0545,-0.0552,-0.055,-0.0528,-0.0542,-0.0567,-0.0575,-0.0681,-0.066,-0.0673,-0.0678,-0.0809,-0.0812,-0.0816,-0.0754,-0.0754,-0.0753,0,0,0,0,0,0,-0.0674,-0.0607,-0.0592,-0.0557,-0.0546,-0.0542,-0.0546,-0.0536,-0.057,-0.0549,-0.0593,-0.0604,-0.0639,-0.0677,-0.0652,-0.0738,-0.0748,-0.0754,-0.0696,-0.0696,-0.0696,-0.0671,-0.0669,0,0,0,0,0,-0.0677,-0.0652,-0.0604,-0.0583,-0.0562,-0.0551,-0.0551,-0.0531,-0.0538,-0.0549,-0.0584,-0.0624,-0.0674,-0.0693,-0.0745,-0.079,-0.0809,-0.0806,-0.0806,-0.0805,-0.0798,-0.0842,-0.0843,-0.0828,-0.0828,-0.0828,0,0,-0.0687,-0.0651,-0.0635,-0.0594,-0.058,-0.0563,-0.0549,-0.0515,-0.0528,-0.0552,-0.0594,-0.0621,-0.0687,-0.0737,-0.0756,-0.0759,-0.0818,-0.0809,-0.0807,-0.0801,-0.0845,-0.0846,-0.0847,-0.0831,-0.083,-0.083,0,0,-0.0677,-0.0656,-0.0618,-0.0605,-0.0552,-0.056,-0.0536,-0.0513,-0.0531,-0.0562,-0.0584,-0.0605,-0.0693,-0.0732,-0.0766,-0.08,-0.0814,-0.0818,-0.0792,-0.0835,-0.0836,-0.0836,-0.0842,-0.0843,-0.0817,-0.0817,-0.0817,0,-0.0684,-0.0631,-0.0616,-0.0576,-0.0566,-0.0548,-0.0515,-0.0548,-0.0552,-0.0568,-0.0565,-0.0658,-0.0696,-0.0754,-0.076,-0.0795,-0.0808,-0.0779,-0.083,-0.0831,-0.0833,-0.0839,-0.0842,-0.0814,-0.0815,-0.0815,-0.0815,0,-0.0643,-0.0603,-0.058,-0.0534,-0.0544,-0.0507,-0.0519,-0.0536,-0.0546,-0.0568,-0.061,-0.0661,-0.0709,-0.0728,-0.0752,-0.0787,-0.0787,-0.0818,-0.0817,-0.083,-0.0836,-0.084,-0.081,-0.0811,-0.0812,-0.0813,0,0,-0.0616,-0.0556,-0.0544,-0.0517,-0.0506,-0.0498,-0.0535,-0.0558,-0.0558,-0.0598,-0.0618,-0.0691,-0.0682,-0.0721,-0.0745,-0.0772,-0.0782,-0.0787,-0.0791,-0.0766,-0.0845,-0.072,-0.0713,-0.0817,-0.0818,-0.0818,-0.0835,0,-0.0573,-0.0493,-0.05,-0.0466,-0.0422,-0.0455,-0.0496,-0.0525,-0.0564,-0.0592,-0.064,-0.0673,-0.0698,-0.069,-0.0726,-0.0763,-0.0793,-0.0773,-0.0859,-0.0861,-0.0728,-0.0714,-0.0748,-0.0755,-0.0838,-0.0839,-0.084,0,-0.0513,-0.047,-0.0406,-0.0399,-0.0386,-0.0389,-0.043,-0.0462,-0.0521,-0.054,-0.0576,-0.062,-0.0659,-0.0681,-0.0756,-0.0737,-0.0787,-0.0819,-0.0822,-0.0729,-0.0743,-0.0764,-0.0759,-0.0846,-0.0846,-0.0845,-0.0845,0,-0.0473,-0.0413,-0.0368,-0.0358,-0.0348,-0.035,-0.0372,-0.0425,-0.0438,-0.0495,-0.0482,-0.0569,-0.0571,-0.0664,-0.0719,-0.0746,-0.0784,-0.0845,-0.0788,-0.078,-0.0836,-0.0829,-0.0919,-0.0919,-0.0919,-0.0919,-0.0919,0,-0.0415,-0.0377,-0.033,-0.0293,-0.0258,-0.0287,-0.0272,-0.0306,-0.0331,-0.0312,-0.043,-0.0413,-0.0566,-0.061,-0.0698,-0.0711,-0.0777,-0.0764,-0.0773,-0.0812,-0.0803,-0.0916,-0.0915,-0.092,-0.092,-0.0919,-0.0919,0,-0.0368,-0.0329,-0.0265,-0.023,-0.0217,-0.0192,-0.0185,-0.0176,-0.0204,-0.0177,-0.0187,-0.0285,-0.0326,-0.0456,-0.0577,-0.0638,-0.0702,-0.0706,-0.0705,-0.0711,-0.0684,-0.0681,-0.066,-0.0656,-0.0652,-0.0649,-0.0647,0,-0.0333,-0.0283,-0.0208,-0.0158,-0.013,-0.0095,-0.007,-0.0098,-0.0076,-0.0075,-0.0045,-0.0097,-0.0113,-0.0226,-0.0368,-0.0489,-0.0566,-0.0581,-0.0641,-0.0645,-0.0657,-0.066,-0.0661,-0.0709,-0.0707,-0.0705,-0.0704,0,-0.0273,-0.024,-0.0183,-0.0076,-0.0018,0.0027,0.007,0.011,0.0099,0.0136,0.0188,0.0169,0.0059,-0.0094,-0.0248,-0.0337,-0.0562,-0.0545,-0.0589,-0.0728,-0.068,-0.0695,-0.0698,-0.0691,-0.0692,-0.0693,-0.0694,-0.0694,-0.023,-0.0173,-0.0084,0.0009,0.008,0.0156,0.0222,0.0271,0.0341,0.0376,0.0342,0.0314,0.0046,-0.0138,-0.0259,-0.0356,-0.0381,-0.0504,-0.0515,-0.0526,-0.0487,-0.0432,-0.0388,-0.0387,-0.0387,-0.0387,-0.0386,0,-0.0163,-0.0096,-0.001,0.0121,0.0209,0.0228,0.0325,0.0388,0.0519,0.0472,0.0493,0.0237,0.0062,-0.0127,-0.0262,-0.0375,-0.0447,-0.0406,-0.0543,-0.0555,-0.0566,-0.0535,-0.0446,-0.0446,-0.0445,-0.0445,0,0,-0.0114,-0.0018,0.003,0.0212,0.031,0.0457,0.0534,0.0614,0.0623,0.0553,0.0486,0.0287,0.0059,-0.0109,-0.0301,-0.0337,-0.0398,-0.0332,-0.0282,-0.0435,-0.0444,-0.0627,-0.0591,0,0,0,0,0]}],[{"header":{"parameterUnit":"m.s-1","parameterCategory":2,"la1":30.2991,"la2":30.254,"lo1":-89.0895,"lo2":-89.0444,"dy":0.0017,"dx":0.0017,"nx":28,"ny":28,"refTime":"2023-08-19T09:00:00:Z","depth":"4","parameterNumber":2,"parameterNumberName":"U-component_of_CURRENTS"},"data":[0,0,0,0,0,0,0,0,0,0,0,0,0,0,0,0,0,0,0,0,0,0,0,0,0,0,0,0,0,0,0,0,0,0,0,0,0,0,0,0,0,0,0,0,0,0,0,0,0,0,0,0,0,0,0,0,0,0,0.005,0.005,0,0.0072,0.0073,0.0074,0.0098,0.0098,0.0097,0.0097,0.0002,0.0,-0.0002,0,0,0,0,0,0,0,0,0,0,0,0,0,0.0063,0.0063,0.005,0.005,0.0049,0.0072,0.0073,0.0074,0.0098,0.0098,0.0097,0.0097,0.0003,0.0,-0.0002,0,0,0,0,0,0,0,0,0,0,0,0,0,0.0075,0.0063,0.005,0.0059,0.006,0.0072,0.0073,0.0074,0.0098,0.0098,0.0097,0.0097,0.0004,0.0001,-0.0003,-0.0015,0,0,-0.0013,-0.0015,0,0,0,0,0,0,0,0,0.0074,0.0076,0.0058,0.0058,0.0059,0.0076,0.0043,0.0036,0.0098,0.0091,0.0097,0.0097,0.0012,0.0008,0.0024,-0.002,-0.0024,-0.0013,-0.0015,-0.0017,-0.0018,0,0,0,0,0,0,0,0.0074,0.0075,0.0066,0.0057,0.0058,0.0074,0.0075,0.0043,0.0056,0.0091,0.0091,0.0083,0.0012,0.0028,0.0022,-0.0025,-0.0013,-0.0016,-0.0018,-0.002,-0.0119,-0.0119,0,0,0,0,0,0,0.0056,0.0074,0.0065,0.0066,0.0058,0.0073,0.0075,0.0076,0.0059,0.0055,0.0084,0.0084,0.0034,0.0026,0.0018,-0.0027,-0.0017,-0.002,-0.0022,-0.0118,-0.0119,-0.012,0,0,0,0,0,0,0.0056,0.0055,0.0064,0.0064,0.0066,0.0072,0.0074,0.0077,0.0085,0.0053,0.0049,0.0087,0.0033,0.0023,-0.001,-0.003,-0.0022,-0.0025,-0.0118,-0.0118,-0.0119,-0.01,0,0,0,0,0,0,0.0057,0.0056,0.0058,0.0063,0.0065,0.0067,0.0074,0.0077,0.0078,0.0079,0.0054,0.0046,0.0032,-0.0004,-0.0013,-0.0035,-0.0027,-0.0117,-0.0118,-0.0119,-0.01,-0.0101,-0.0101,0,0,0,0,0,0.0058,0.0061,0.0059,0.0057,0.0066,0.0066,0.0069,0.0077,0.0078,0.0084,0.0069,0.0047,-0.0018,-0.0007,-0.0017,-0.004,-0.0116,-0.0118,-0.0119,-0.01,-0.01,-0.0101,0,0,0,0,0,0,0.0069,0.0063,0.0061,0.0063,0.0059,0.0067,0.0074,0.0073,0.0071,0.0069,0.0044,0.0035,-0.0002,-0.0024,-0.0011,-0.0072,-0.0074,-0.0077,-0.0056,-0.0057,-0.0057,-0.0048,-0.003,0,0,0,0,0,0.007,0.0073,0.0065,0.0066,0.0065,0.0068,0.007,0.0072,0.0065,0.0066,0.0045,0.0018,-0.0013,-0.0036,-0.006,-0.0095,-0.009,-0.0119,-0.0119,-0.0119,-0.0119,-0.0126,-0.0126,-0.0124,-0.0124,-0.0124,0,0,0.0072,0.007,0.007,0.0069,0.0072,0.0071,0.0071,0.0072,0.0066,0.005,0.0039,0.0017,-0.0021,-0.0051,-0.0072,-0.0075,-0.0112,-0.0121,-0.012,-0.0121,-0.0127,-0.0127,-0.0127,-0.0125,-0.0125,-0.0125,0,0,0.0078,0.0078,0.0083,0.0082,0.0077,0.0075,0.0069,0.007,0.0067,0.0047,0.0035,0.0013,-0.0041,-0.0055,-0.0076,-0.0095,-0.0109,-0.0123,-0.0124,-0.013,-0.0129,-0.0129,-0.0095,-0.0092,-0.0128,-0.0128,-0.0128,0,0.0079,0.0084,0.0083,0.0088,0.0083,0.0072,0.0072,0.0067,0.0055,0.0045,0.0039,-0.0011,-0.0037,-0.0071,-0.0079,-0.0094,-0.0094,-0.0117,-0.0128,-0.0128,-0.0128,-0.0093,-0.009,-0.0127,-0.0127,-0.0127,-0.0127,0,0.0087,0.0092,0.0095,0.0095,0.0092,0.0089,0.0073,0.0064,0.0048,0.0041,0.0008,-0.0011,-0.0042,-0.006,-0.0081,-0.0106,-0.0101,-0.0121,-0.0122,-0.0127,-0.009,-0.0087,-0.0126,-0.0126,-0.0126,-0.0126,0,0,0.0078,0.0097,0.0095,0.0101,0.0094,0.0092,0.0073,0.0054,0.0043,0.0024,0.0011,-0.0032,-0.0039,-0.0062,-0.0085,-0.0097,-0.0086,-0.0119,-0.012,-0.0074,-0.0078,-0.0039,-0.0032,-0.0119,-0.0119,-0.0119,-0.004,0,0.008,0.0095,0.0098,0.0101,0.0105,0.0091,0.0078,0.0059,0.0037,0.0023,-0.0002,-0.0023,-0.0044,-0.006,-0.0073,-0.0093,-0.0083,-0.0103,-0.009,-0.0088,-0.0046,-0.003,-0.012,-0.0038,-0.0038,-0.0037,-0.0037,0,0.0076,0.009,0.0098,0.0108,0.0107,0.0103,0.0078,0.0064,0.0037,0.0023,0.0001,-0.0017,-0.0036,-0.0052,-0.0062,-0.0082,-0.0077,-0.008,-0.0077,-0.0049,-0.0045,-0.0042,-0.0031,-0.0032,-0.0032,-0.0033,-0.0033,0,0.0063,0.0083,0.009,0.0093,0.0102,0.0094,0.0086,0.0061,0.0049,0.0023,0.0019,-0.0007,-0.0013,-0.003,-0.0034,-0.0059,-0.0029,-0.0058,-0.0,0.0004,-0.0062,-0.0064,-0.0045,-0.0045,-0.0045,-0.0045,-0.0046,0,0.0054,0.0061,0.0087,0.009,0.0095,0.0095,0.0082,0.007,0.0054,0.0047,0.0021,0.002,-0.0016,-0.0007,-0.0018,0.0012,-0.0007,0.0013,0.0022,-0.0052,-0.0054,-0.0058,-0.006,-0.0042,-0.0043,-0.0044,-0.0044,0,0.0035,0.0051,0.0066,0.0084,0.009,0.0089,0.0087,0.0076,0.0065,0.0056,0.005,0.0042,0.0052,0.005,0.0047,0.0052,0.0065,0.0088,0.005,0.0053,0.0103,0.0101,0.0154,0.0156,0.0158,0.0159,0.016,0,0.0031,0.0033,0.0062,0.0072,0.0082,0.0083,0.0081,0.0074,0.0067,0.0072,0.0074,0.009,0.0085,0.0132,0.0119,0.0145,0.0138,0.0165,0.0094,0.0118,0.0121,0.0116,0.0111,0.0163,0.0163,0.0164,0.0164,0,0.002,0.0025,0.0041,0.0067,0.0075,0.0086,0.0088,0.009,0.0082,0.0074,0.0094,0.011,0.0144,0.0149,0.0188,0.0192,0.0146,0.0181,0.0177,0.011,0.0129,0.0129,0.0123,0.017,0.0169,0.0168,0.0168,0,0.0013,0.0023,0.0043,0.0066,0.0082,0.0101,0.0097,0.0104,0.0103,0.0105,0.0115,0.0137,0.0139,0.0178,0.0202,0.0223,0.0208,0.0197,0.0191,0.0185,0.0157,0.0183,0.0258,0,0,0,0,0,0.0012,0.0024,0.0043,0.0081,0.0098,0.0111,0.0112,0.0105,0.01,0.0114,0.0114,0.014,0.0181,0.0196,0.0223,0.023,0.0217,0.0263,0.0202,0.0201,0.0194,0.0157,0,0,0,0,0,0,0.0016,0.0027,0.0045,0.009,0.0118,0.014,0.0144,0.014,0.0145,0.0137,0.0154,0.0152,0.0187,0.0166,0.0226,0.0233,0.0199,0.0275,0.0276,0.0205,0.0199,0.0194,0.0153,0,0,0,0,0]},{"header":{"parameterUnit":"m.s-1","parameterCategory":2,"la1":30.2991,"la2":30.254,"lo1":-89.0895,"lo2":-89.0444,"dy":0.0017,"dx":0.0017,"nx":28,"ny":28,"refTime":"2023-08-19T09:00:00:Z","depth":"4","parameterNumber":3,"parameterNumberName":"V-component_of_CURRENTS"},"data":[0,0,0,0,0,0,0,0,0,0,0,0,0,0,0,0,0,0,0,0,0,0,0,0,0,0,0,0,0,0,0,0,0,0,0,0,0,0,0,0,0,0,0,0,0,0,0,0,0,0,0,0,0,0,0,0,0,0,-0.0453,-0.0453,0,-0.0468,-0.0469,-0.0469,-0.0544,-0.0546,-0.0548,-0.055,-0.0659,-0.066,-0.0661,0,0,0,0,0,0,0,0,0,0,0,0,0,-0.04,-0.0401,-0.0453,-0.0453,-0.0454,-0.0468,-0.0469,-0.0469,-0.0544,-0.0546,-0.0548,-0.055,-0.0659,-0.066,-0.0662,0,0,0,0,0,0,0,0,0,0,0,0,0,-0.0419,-0.0401,-0.0453,-0.0494,-0.0498,-0.0468,-0.0469,-0.0469,-0.0543,-0.0546,-0.0549,-0.0552,-0.0658,-0.066,-0.0662,-0.0615,0,0,-0.0667,-0.0668,0,0,0,0,0,0,0,0,-0.0418,-0.042,-0.0487,-0.0491,-0.0495,-0.0508,-0.049,-0.0523,-0.0543,-0.0525,-0.055,-0.0553,-0.0616,-0.0621,-0.0615,-0.0621,-0.0625,-0.0667,-0.0668,-0.0669,-0.0669,0,0,0,0,0,0,0,-0.0416,-0.042,-0.0458,-0.0487,-0.0492,-0.0481,-0.0487,-0.0496,-0.0555,-0.0526,-0.0532,-0.0535,-0.0619,-0.0613,-0.0618,-0.0627,-0.0667,-0.0669,-0.067,-0.067,-0.0718,-0.0718,0,0,0,0,0,0,-0.0418,-0.0419,-0.0457,-0.0458,-0.0464,-0.048,-0.0487,-0.05,-0.0553,-0.0563,-0.0532,-0.0538,-0.0609,-0.0616,-0.0623,-0.0672,-0.0669,-0.0671,-0.0672,-0.0718,-0.0718,-0.0718,0,0,0,0,0,0,-0.0417,-0.0422,-0.0457,-0.0439,-0.0443,-0.0479,-0.0492,-0.0499,-0.0537,-0.0557,-0.057,-0.0569,-0.0611,-0.062,-0.0652,-0.0674,-0.0671,-0.0673,-0.0717,-0.0718,-0.0718,-0.0706,0,0,0,0,0,0,-0.0416,-0.0422,-0.0434,-0.044,-0.0444,-0.046,-0.049,-0.0497,-0.0532,-0.0541,-0.0591,-0.0602,-0.0614,-0.0649,-0.0653,-0.0676,-0.0674,-0.0717,-0.0718,-0.0718,-0.0707,-0.0706,-0.0706,0,0,0,0,0,-0.0414,-0.0418,-0.0434,-0.0439,-0.046,-0.046,-0.0461,-0.0494,-0.0532,-0.0541,-0.0574,-0.0603,-0.0656,-0.0649,-0.0655,-0.0679,-0.0717,-0.0717,-0.0718,-0.0707,-0.0706,-0.0706,0,0,0,0,0,0,-0.0405,-0.0425,-0.0445,-0.0457,-0.0468,-0.0474,-0.0481,-0.051,-0.0539,-0.0563,-0.0593,-0.0604,-0.0641,-0.0656,-0.0648,-0.0694,-0.0696,-0.0697,-0.0685,-0.0685,-0.0685,-0.0695,-0.0676,0,0,0,0,0,-0.0405,-0.0408,-0.0432,-0.0437,-0.045,-0.0473,-0.0481,-0.0507,-0.053,-0.0549,-0.0584,-0.0619,-0.0635,-0.066,-0.0674,-0.0693,-0.0689,-0.0715,-0.0715,-0.0715,-0.0727,-0.0719,-0.0718,-0.072,-0.072,-0.072,0,0,-0.0404,-0.0409,-0.0417,-0.0434,-0.0447,-0.046,-0.0486,-0.0508,-0.0528,-0.0554,-0.06,-0.0618,-0.0639,-0.0659,-0.0679,-0.0684,-0.0709,-0.0716,-0.0715,-0.0727,-0.0719,-0.0719,-0.0719,-0.072,-0.072,-0.072,0,0,-0.0388,-0.0412,-0.0415,-0.0425,-0.0448,-0.046,-0.0478,-0.051,-0.0542,-0.0573,-0.0595,-0.0617,-0.0664,-0.0664,-0.0674,-0.0679,-0.0703,-0.0709,-0.0724,-0.0715,-0.0715,-0.0715,-0.0691,-0.0689,-0.0715,-0.0715,-0.0715,0,-0.0385,-0.0399,-0.0414,-0.0419,-0.0429,-0.0469,-0.0485,-0.0506,-0.0546,-0.0567,-0.0598,-0.0641,-0.0658,-0.0665,-0.0679,-0.0678,-0.0686,-0.0721,-0.0714,-0.0714,-0.0714,-0.069,-0.0688,-0.0715,-0.0715,-0.0715,-0.0715,0,-0.038,-0.0393,-0.0394,-0.0416,-0.0427,-0.0442,-0.0478,-0.0509,-0.056,-0.0584,-0.0623,-0.0631,-0.0661,-0.067,-0.0686,-0.0699,-0.0706,-0.0707,-0.0712,-0.0713,-0.0688,-0.0686,-0.0714,-0.0714,-0.0714,-0.0715,0,0,-0.037,-0.0389,-0.0393,-0.0404,-0.0434,-0.0441,-0.0475,-0.0511,-0.0539,-0.0587,-0.0615,-0.0642,-0.0666,-0.0678,-0.0689,-0.0694,-0.0689,-0.0723,-0.0723,-0.0695,-0.0678,-0.0657,-0.0652,-0.0707,-0.0707,-0.0707,-0.0653,0,-0.0368,-0.0375,-0.0386,-0.0402,-0.0417,-0.045,-0.0472,-0.0508,-0.0547,-0.0581,-0.0606,-0.0635,-0.0663,-0.0683,-0.0691,-0.0698,-0.0689,-0.0704,-0.0686,-0.0685,-0.0663,-0.065,-0.0707,-0.0651,-0.0651,-0.065,-0.065,0,-0.037,-0.0372,-0.0391,-0.0404,-0.0417,-0.0437,-0.0478,-0.0502,-0.0547,-0.0579,-0.0612,-0.0638,-0.0659,-0.0676,-0.0682,-0.0705,-0.07,-0.0694,-0.0691,-0.068,-0.0661,-0.0656,-0.0646,-0.0647,-0.0647,-0.0647,-0.0647,0,-0.0362,-0.0376,-0.0391,-0.0398,-0.0424,-0.0449,-0.0475,-0.0516,-0.0536,-0.0583,-0.0597,-0.063,-0.0644,-0.0659,-0.0666,-0.069,-0.0657,-0.0669,-0.0628,-0.0625,-0.0665,-0.0666,-0.0652,-0.0652,-0.0652,-0.0653,-0.0653,0,-0.0355,-0.0365,-0.0397,-0.0405,-0.043,-0.0455,-0.0489,-0.0516,-0.0548,-0.0554,-0.0604,-0.0594,-0.065,-0.0641,-0.0654,-0.0634,-0.0638,-0.0629,-0.0613,-0.0659,-0.066,-0.0662,-0.0664,-0.0651,-0.0651,-0.0651,-0.0652,0,-0.0342,-0.0364,-0.0377,-0.0412,-0.0429,-0.0455,-0.0497,-0.0512,-0.0546,-0.055,-0.0566,-0.058,-0.0577,-0.0593,-0.0591,-0.06,-0.0584,-0.0563,-0.0593,-0.0579,-0.0562,-0.0564,-0.0528,-0.0527,-0.0526,-0.0526,-0.0525,0,-0.0334,-0.0344,-0.038,-0.0398,-0.0422,-0.0463,-0.0486,-0.0522,-0.0522,-0.052,-0.0506,-0.051,-0.0518,-0.0489,-0.0516,-0.0518,-0.0519,-0.0512,-0.0568,-0.0563,-0.0551,-0.0554,-0.0558,-0.0523,-0.0523,-0.0523,-0.0523,0,-0.0314,-0.0337,-0.0348,-0.0384,-0.0417,-0.0441,-0.0471,-0.0467,-0.0486,-0.0496,-0.0458,-0.0463,-0.0441,-0.046,-0.0459,-0.0459,-0.0532,-0.0503,-0.0505,-0.0558,-0.0556,-0.0546,-0.055,-0.0519,-0.052,-0.052,-0.052,0,-0.0301,-0.0307,-0.0332,-0.0363,-0.0399,-0.0422,-0.044,-0.0438,-0.0444,-0.0436,-0.0408,-0.0407,-0.0413,-0.0422,-0.0412,-0.0428,-0.0447,-0.0469,-0.0474,-0.0478,-0.0494,-0.0486,-0.0412,0,0,0,0,0,-0.0281,-0.029,-0.0311,-0.0347,-0.038,-0.0407,-0.0423,-0.0434,-0.0431,-0.0399,-0.0412,-0.0388,-0.0394,-0.0388,-0.04,-0.0406,-0.0456,-0.0422,-0.0485,-0.0501,-0.0505,-0.0532,0,0,0,0,0,0,-0.0273,-0.0287,-0.0298,-0.0331,-0.0355,-0.039,-0.0407,-0.0407,-0.0391,-0.0385,-0.0383,-0.0389,-0.039,-0.0383,-0.0396,-0.04,-0.0443,-0.0425,-0.0425,-0.0499,-0.0502,-0.0506,-0.0535,0,0,0,0,0]}]]